Location: Chassagnes
(44.4047°N, 4.1657°E)
Time: 13:08:59
(UTC+00:00)

CZ-4 R/B - Pass Details

Date: 27 October 2020
Orbit: 531 x 599 km, 97.7° (Epoch: 23 November)

Event Time Altitude Azimuth Distance (km) Brightness Sun altitude
Rises 18:57:41 0° 192° (SSW) 2,706 4.9 -25.3°
Reaches altitude 10° 19:00:03 10° 205° (SSW) 1,807 4.1 -25.7°
Maximum altitude 19:03:24 27° 264° (W) 1,057 3.4 -26.3°
Drops below altitude 10° 19:06:44 10° 323° (NW) 1,799 4.5 -26.9°
Sets 19:09:05 0° 336° (NNW) 2,690 5.3 -27.3°
